Content
SEND FEEDBACK

Daily
Averages
Monthly
Summary
Turkmenistan

ASHGABAT, TURKMENISTAN


Home > Asia > Turkmenistan
Elevation: 775 feet     Latitude: 37 58N     Longitude: 058 20E

WEATHER
 
SELECT A DAY
Number of Records: 177,170;   Date Range: 3/15/97 - 7/23/14
 
SHARE

PRINT THIS DATA

[ ← Previous Day ]
WEATHER ALMANAC - AUGUST 26, 2013
[ Next Day → ]
[ °C ]   °F
Weather ElementAverageHighLow
Temperature85.2 °F100.4 °F (4:00 pm)68 °F (7:00 am)
Dewpoint40 °F51 °F (8:00 am)28.4 °F (7:00 pm)
Humidity21.1 %46 % (7:00 am)7 % (5:00 pm)
Barometer29.79 in29.86 in (10:00 am)29.74 in (5:00 pm)
Wind Speed5 mph8.9 mph (11:00 am)
Wind Gust26.8 mph (12:00 pm)
Weather ElementAverage
Visibility6.1 mi
Wind DirectionSE (138.4 °)

Weather ElementTotal
Precipitation---
Cooling Degree Days19.2 (Base 65)
Growing Degree Days34.2 (Base 50)
Averaged from 31 records on August 26, 2013
WEATHER CONDITIONS BREAKOUT
WIND DIRECTION BREAKOUT
WEATHER BY HOUR - AUGUST 26, 2013
[ °C ]   °F
Local TimeTemperatureDewpointHumidityBarometerVisibilityWind DirectionWind SpeedGust SpeedPrecipitationEventsConditions
1:00 AM77.0 °F42.8 °F29 %29.77 in6.2 miNorth (350°)2.2 mphClear
2:00 AM77.0 °F49.0 °F26 %29.76 in6.0 miNW (310°)4.5 mph
2:00 AM73.4 °F41.0 °F31 %29.77 in6.2 miNW (310°)4.5 mphClear
3:00 AM71.6 °F41.0 °F33 %29.77 in6.2 miCalmClear
4:00 AM71.6 °F42.8 °F35 %29.77 in6.2 miSouth (190°)4.5 mphClear
5:00 AM69.0 °F44.0 °F29 %29.77 in6.0 miSSE (160°)4.5 mph
5:00 AM71.6 °F44.6 °F38 %29.77 in6.2 miSSE (160°)4.5 mphClear
6:00 AM71.6 °F46.4 °F41 %29.77 in6.2 miSouth (180°)4.5 mphClear
7:00 AM68.0 °F46.4 °F46 %29.83 in6.2 miVariable2.2 mphClear
8:00 AM72.0 °F51.0 °F37 %29.82 in6.0 miSW (220°)6.7 mph
8:00 AM75.2 °F48.2 °F38 %29.83 in6.2 miSW (220°)6.7 mphClear
9:00 AM82.4 °F42.8 °F25 %29.83 in6.2 miCalmClear
10:00 AM89.6 °F37.4 °F16 %29.86 in6.2 miESE (120°)4.5 mphClear
11:00 AM90.0 °F47.0 °F14 %29.82 in6.0 miENE (70°)8.9 mph
11:00 AM91.4 °F37.4 °F15 %29.86 in6.2 miENE (60°)6.7 mphClear
12:00 PM95.0 °F35.6 °F12 %29.83 in6.2 miEast (90°)8.9 mph26.8 mphClear
1:00 PM96.8 °F33.8 °F11 %29.83 in6.2 miENE (70°)6.7 mphClear
2:00 PM97.0 °F41.0 °F8 %29.79 in6.0 miEast (90°)8.9 mph
2:00 PM96.8 °F33.8 °F11 %29.80 in6.2 miEast (90°)6.7 mphClear
3:00 PM98.6 °F33.8 °F10 %29.80 in6.2 miENE (60°)6.7 mphClear
4:00 PM100.4 °F33.8 °F10 %29.77 in6.2 miNorth (350°)8.9 mphClear
5:00 PM99.0 °F40.0 °F7 %29.74 in6.0 miNNE (30°)6.7 mph
5:00 PM98.6 °F30.2 °F9 %29.77 in6.2 miNNE (20°)6.7 mphClear
6:00 PM100.4 °F30.2 °F9 %29.77 in6.2 miNorth (360°)6.7 mphPartly Cloudy
7:00 PM96.8 °F28.4 °F9 %29.77 in6.2 miNNE (30°)4.5 mphPartly Cloudy
8:00 PM92.0 °F45.0 °F11 %29.75 in6.0 miNE (40°)4.5 mphClear
8:00 PM91.4 °F32.0 °F12 %29.77 in6.2 miNE (40°)2.2 mphPartly Cloudy
9:00 PM86.0 °F39.2 °F19 %29.80 in6.2 miSW (230°)4.5 mphClear
10:00 PM80.6 °F41.0 °F24 %29.80 in5.6 miCalmClear
11:00 PM81.0 °F42.0 °F15 %29.81 in6.0 miSW (220°)4.5 mph
11:00 PM78.8 °F39.2 °F24 %29.80 in6.2 miSW (220°)4.5 mphClear
Hourly data recorded from UTAA, located miles away from Ashgabat, Turkmenistan







STORIES FROM OUR PARTNERS